[[{"header":{"parameterUnit":"m.s-1","parameterCategory":2,"la1":30.2991,"la2":30.254,"lo1":-89.0895,"lo2":-89.0444,"dy":0.0017,"dx":0.0017,"nx":28,"ny":28,"refTime":"2025-09-18T21:00:00:Z","depth":"0","parameterNumber":2,"parameterNumberName":"U-component_of_CURRENTS"},"data":[0,0,0,0,0,0,0,0,0,0,0,0,0,0,0,0,0,0,0,0,0,0,0,0,0,0,0,0,0,0,0,0,0,0,0,0,0,0,0,0,0,0,0,0,0,0,0,0,0,0,0,0,0,0,0,0,0,0,0.299,0.2991,0,0.3026,0.3026,0.3027,0.3088,0.3089,0.309,0.3091,0.3155,0.3156,0.3156,0,0,0,0,0,0,0,0,0,0,0,0,0,0.3011,0.301,0.299,0.2991,0.2991,0.3026,0.3026,0.3027,0.3087,0.3089,0.309,0.3092,0.3155,0.3155,0.3156,0,0,0,0,0,0,0,0,0,0,0,0,0,0.302,0.301,0.299,0.3026,0.3029,0.3026,0.3026,0.3027,0.3087,0.3089,0.3091,0.3092,0.3155,0.3155,0.3156,0.3127,0,0,0.3159,0.316,0,0,0,0,0,0,0,0,0.3019,0.3019,0.302,0.3023,0.3027,0.3054,0.3057,0.3062,0.3087,0.3065,0.3091,0.3093,0.3123,0.3126,0.3128,0.313,0.3133,0.3159,0.316,0.316,0.316,0,0,0,0,0,0,0,0.3018,0.3018,0.3004,0.3021,0.3025,0.3053,0.3056,0.3059,0.3084,0.3067,0.3071,0.3075,0.3125,0.3127,0.313,0.3134,0.3159,0.316,0.3161,0.3161,0.3172,0.3171,0,0,0,0,0,0,0.301,0.3017,0.3003,0.3005,0.3028,0.3051,0.3054,0.3044,0.3083,0.3091,0.3074,0.3078,0.3125,0.3129,0.3133,0.3182,0.316,0.3161,0.3162,0.3172,0.3172,0.3171,0,0,0,0,0,0,0.301,0.3008,0.3002,0.3013,0.3015,0.3048,0.3037,0.3043,0.306,0.3088,0.3097,0.3085,0.3126,0.3132,0.3138,0.3182,0.3161,0.3162,0.3172,0.3172,0.3171,0.3229,0,0,0,0,0,0,0.3011,0.3007,0.2994,0.3012,0.3014,0.3021,0.3035,0.3043,0.3059,0.3065,0.31,0.3107,0.3128,0.3136,0.3139,0.3183,0.3163,0.3173,0.3172,0.3172,0.3227,0.323,0.3233,0,0,0,0,0,0.3011,0.2995,0.2993,0.2992,0.2995,0.3021,0.3025,0.3055,0.3058,0.3074,0.308,0.3107,0.3136,0.3136,0.3139,0.3185,0.3173,0.3172,0.3172,0.3226,0.323,0.3233,0,0,0,0,0,0,0.3001,0.3,0.2999,0.2983,0.3007,0.3033,0.3039,0.3053,0.3068,0.3068,0.3092,0.3099,0.3134,0.3127,0.3126,0.3181,0.3163,0.3163,0.3203,0.3207,0.321,0.3201,0.3164,0,0,0,0,0,0.2987,0.2975,0.299,0.298,0.2986,0.3008,0.3018,0.304,0.3055,0.3065,0.3092,0.3106,0.3128,0.314,0.316,0.317,0.3172,0.3201,0.3204,0.3207,0.3199,0.3236,0.3243,0.3169,0.3169,0.3169,0,0,0.299,0.2978,0.2978,0.2977,0.299,0.3005,0.3019,0.3039,0.3065,0.3065,0.3104,0.3122,0.3132,0.3166,0.318,0.3169,0.3227,0.3206,0.3209,0.3199,0.3237,0.3244,0.3251,0.3169,0.3169,0.3169,0,0,0.2978,0.2968,0.2953,0.2969,0.2982,0.3003,0.3009,0.3041,0.3072,0.3099,0.3114,0.3135,0.3172,0.3189,0.3199,0.3214,0.3247,0.3239,0.3248,0.3286,0.3293,0.3299,0.331,0.3316,0.3235,0.3235,0.3235,0,0.2979,0.295,0.296,0.2951,0.2963,0.3001,0.3005,0.3044,0.3082,0.3109,0.3122,0.3175,0.3182,0.3217,0.3228,0.3226,0.3247,0.3243,0.3293,0.3299,0.3305,0.3314,0.3321,0.3238,0.3238,0.3237,0.3237,0,0.2945,0.2942,0.2939,0.2937,0.2957,0.2971,0.302,0.3062,0.31,0.3142,0.3202,0.3211,0.3242,0.3259,0.3249,0.3296,0.3299,0.3303,0.3293,0.3316,0.3324,0.333,0.3242,0.3241,0.324,0.3239,0,0,0.2903,0.2913,0.2912,0.2922,0.2948,0.297,0.3018,0.3078,0.3127,0.3183,0.3242,0.327,0.3291,0.3297,0.3303,0.3325,0.3375,0.3332,0.3332,0.3356,0.3457,0.3303,0.3294,0.3412,0.3413,0.3414,0.3447,0,0.2874,0.2865,0.287,0.2896,0.2908,0.296,0.3008,0.3075,0.3147,0.3226,0.3264,0.3322,0.3305,0.3328,0.335,0.3376,0.3395,0.3365,0.3416,0.3416,0.329,0.3297,0.3115,0.3115,0.3453,0.3454,0.3454,0,0.2828,0.2832,0.2838,0.2893,0.2901,0.2923,0.3012,0.3062,0.318,0.3241,0.3306,0.3357,0.3393,0.3383,0.3431,0.3425,0.3437,0.345,0.3452,0.3288,0.3273,0.3144,0.3113,0.3028,0.3464,0.3463,0.3462,0,0.2799,0.2816,0.2822,0.2836,0.2897,0.2918,0.2957,0.3063,0.3123,0.3252,0.3315,0.3384,0.3422,0.3458,0.3471,0.3474,0.3527,0.3533,0.3402,0.3392,0.3229,0.32,0.3126,0.3568,0.3568,0.3567,0.3567,0,0.2769,0.2779,0.2812,0.2821,0.2853,0.2895,0.2953,0.3028,0.3126,0.319,0.3309,0.3363,0.3449,0.3494,0.35,0.345,0.3548,0.3392,0.3387,0.3238,0.3211,0.312,0.3124,0.3569,0.3568,0.3568,0.3568,0,0.2741,0.2762,0.2782,0.2827,0.2842,0.2867,0.2936,0.2988,0.309,0.3175,0.3215,0.3361,0.3384,0.3439,0.3491,0.3459,0.3329,0.341,0.3208,0.3176,0.2919,0.2932,0.2724,0.2669,0.3257,0.3253,0.325,0,0.2715,0.2721,0.2774,0.279,0.2804,0.2843,0.2875,0.2966,0.3012,0.3149,0.318,0.3258,0.326,0.3277,0.3232,0.3191,0.3166,0.3035,0.2975,0.2855,0.2872,0.2776,0.2742,0.2799,0.2793,0.2787,0.2783,0,0.2661,0.2687,0.2708,0.2747,0.2772,0.2802,0.2839,0.2861,0.2954,0.3001,0.3042,0.305,0.3052,0.2921,0.2883,0.2852,0.2847,0.2917,0.2868,0.2545,0.2366,0.2326,0.2827,0.2735,0.274,0.2744,0.2746,0.2748,0.2607,0.2611,0.2642,0.267,0.2699,0.2697,0.2663,0.2697,0.2697,0.2671,0.2803,0.271,0.2688,0.2563,0.2535,0.2365,0.2445,0.2298,0.2341,0.2266,0.2136,0.2495,0.2346,0.2348,0.235,0.2352,0.2353,0,0.2496,0.2516,0.2552,0.2551,0.252,0.2585,0.258,0.2497,0.2394,0.2409,0.2365,0.2238,0.209,0.2071,0.1933,0.184,0.1786,0.1808,0.1677,0.1693,0.2071,0.1973,0.1644,0.1644,0.1644,0.1644,0.1644,0.1644,0.2437,0.2421,0.2441,0.2348,0.2337,0.2228,0.2181,0.2093,0.2047,0.186,0.1745,0.1736,0.1756,0.1638,0.1498,0.1472,0.1417,0.127,0.1381,0.1693,0.1743,0.1791,0.1697,0.1316,0.1315,0.0877,0.0874,0.0872]},{"header":{"parameterUnit":"m.s-1","parameterCategory":2,"la1":30.2991,"la2":30.254,"lo1":-89.0895,"lo2":-89.0444,"dy":0.0017,"dx":0.0017,"nx":28,"ny":28,"refTime":"2025-09-18T21:00:00:Z","depth":"0","parameterNumber":3,"parameterNumberName":"V-component_of_CURRENTS"},"data":[0,0,0,0,0,0,0,0,0,0,0,0,0,0,0,0,0,0,0,0,0,0,0,0,0,0,0,0,0,0,0,0,0,0,0,0,0,0,0,0,0,0,0,0,0,0,0,0,0,0,0,0,0,0,0,0,0,0,0.0413,0.0413,0,0.0385,0.0385,0.0385,0.0371,0.0371,0.0371,0.0371,0.0327,0.0326,0.0325,0,0,0,0,0,0,0,0,0,0,0,0,0,0.0391,0.0392,0.0413,0.0413,0.0412,0.0385,0.0385,0.0384,0.0371,0.0371,0.0371,0.0371,0.0327,0.0326,0.0325,0,0,0,0,0,0,0,0,0,0,0,0,0,0.0385,0.0392,0.0413,0.0403,0.0402,0.0385,0.0385,0.0384,0.0371,0.0371,0.0371,0.0371,0.0328,0.0326,0.0324,0.0311,0,0,0.0319,0.0318,0,0,0,0,0,0,0,0,0.0386,0.0386,0.0405,0.0404,0.0402,0.0382,0.0361,0.0359,0.0371,0.0382,0.0371,0.0371,0.0344,0.0341,0.0335,0.0309,0.0307,0.0318,0.0317,0.0317,0.0316,0,0,0,0,0,0,0,0.0386,0.0387,0.0401,0.0404,0.0403,0.0378,0.0378,0.036,0.0362,0.0381,0.038,0.0378,0.0344,0.0337,0.0334,0.0306,0.0319,0.0317,0.0316,0.0315,0.0306,0.0307,0,0,0,0,0,0,0.0395,0.0388,0.0402,0.04,0.0395,0.0379,0.0379,0.0388,0.0362,0.0359,0.0378,0.0378,0.034,0.0336,0.0332,0.0348,0.0317,0.0315,0.0314,0.0305,0.0306,0.0307,0,0,0,0,0,0,0.0394,0.0397,0.0403,0.0393,0.0392,0.038,0.039,0.0387,0.0384,0.0361,0.0357,0.0378,0.034,0.0335,0.0319,0.0345,0.0314,0.0312,0.0304,0.0305,0.0306,0.0358,0,0,0,0,0,0,0.0394,0.0397,0.0406,0.0394,0.0393,0.0399,0.039,0.0387,0.0383,0.0382,0.0359,0.0355,0.034,0.0322,0.0317,0.0342,0.0311,0.0303,0.0304,0.0306,0.0356,0.0361,0.0366,0,0,0,0,0,0.0394,0.0409,0.0407,0.0408,0.0407,0.0399,0.0397,0.0387,0.0383,0.0383,0.0366,0.0356,0.033,0.0321,0.0315,0.034,0.0302,0.0304,0.0306,0.0353,0.036,0.0366,0,0,0,0,0,0,0.0407,0.0409,0.0406,0.0423,0.0413,0.0398,0.0398,0.0389,0.0376,0.0375,0.0354,0.0348,0.0349,0.0333,0.0324,0.0343,0.0319,0.032,0.0358,0.0364,0.0369,0.0387,0.0309,0,0,0,0,0,0.0414,0.0427,0.0418,0.0431,0.0427,0.0412,0.0407,0.04,0.0387,0.0381,0.0366,0.0355,0.0353,0.0348,0.0338,0.0338,0.0332,0.0354,0.036,0.0364,0.0376,0.0391,0.0399,0.0313,0.0313,0.0313,0,0,0.0423,0.0425,0.0433,0.0434,0.0425,0.0428,0.0409,0.0406,0.0414,0.0378,0.0382,0.0367,0.0356,0.0362,0.0363,0.0352,0.0383,0.0367,0.0371,0.038,0.0394,0.0403,0.041,0.0315,0.0314,0.0314,0,0,0.044,0.0448,0.0458,0.0457,0.0448,0.044,0.0441,0.0427,0.0426,0.0423,0.0409,0.041,0.0394,0.0399,0.0399,0.0426,0.041,0.0425,0.0467,0.0482,0.0489,0.0495,0.0489,0.0494,0.043,0.043,0.043,0,0.045,0.0468,0.0458,0.0468,0.0475,0.045,0.0463,0.0458,0.0442,0.0454,0.0432,0.044,0.0419,0.0451,0.0457,0.044,0.0436,0.0443,0.0489,0.0496,0.0501,0.0493,0.0498,0.0432,0.0432,0.0432,0.0432,0,0.0471,0.0489,0.0495,0.0505,0.0508,0.0515,0.0509,0.0514,0.0508,0.0509,0.0531,0.0505,0.0518,0.0512,0.0487,0.0527,0.0505,0.0493,0.0474,0.0513,0.0501,0.0506,0.0436,0.0435,0.0435,0.0434,0,0,0.0486,0.0508,0.0511,0.0529,0.0533,0.0539,0.0559,0.0578,0.0609,0.0593,0.0639,0.0622,0.0615,0.0614,0.0593,0.0596,0.0616,0.0561,0.056,0.0556,0.0635,0.0618,0.0621,0.0612,0.0613,0.0614,0.0607,0,0.0505,0.0541,0.0545,0.0581,0.0599,0.0601,0.063,0.0645,0.0654,0.069,0.0684,0.071,0.0654,0.0666,0.0662,0.0637,0.0633,0.0618,0.0597,0.0596,0.0578,0.0628,0.0614,0.0607,0.0611,0.0612,0.0612,0,0.0519,0.0547,0.0588,0.0637,0.0646,0.0664,0.0718,0.0738,0.0781,0.0795,0.082,0.0814,0.0828,0.0772,0.0752,0.0745,0.0694,0.0661,0.0661,0.0634,0.0589,0.057,0.0615,0.0584,0.0619,0.0619,0.0618,0,0.0533,0.0577,0.0616,0.0632,0.0678,0.0706,0.073,0.0773,0.0812,0.0866,0.0909,0.0916,0.0938,0.0887,0.0811,0.0787,0.0781,0.0744,0.0678,0.0675,0.0654,0.0648,0.0671,0.0727,0.0727,0.0727,0.0727,0,0.0558,0.059,0.0628,0.0655,0.0714,0.0732,0.0801,0.0832,0.0893,0.0964,0.0964,0.1025,0.0969,0.0955,0.0861,0.0794,0.0823,0.0701,0.0685,0.067,0.0665,0.0629,0.0601,0.0727,0.0727,0.0727,0.0727,0,0.0573,0.0594,0.0645,0.0702,0.0722,0.0765,0.0841,0.0899,0.0948,0.1044,0.107,0.112,0.1114,0.1035,0.0966,0.0874,0.0776,0.0755,0.0731,0.0713,0.0621,0.0596,0.0614,0.0605,0.0695,0.0694,0.0694,0,0.0587,0.0613,0.0679,0.0716,0.0745,0.0808,0.0864,0.0921,0.0988,0.1105,0.1165,0.1199,0.1233,0.113,0.0983,0.084,0.0783,0.0724,0.0678,0.0635,0.0595,0.0595,0.0586,0.066,0.066,0.0659,0.0659,0,0.0619,0.0637,0.0684,0.0761,0.0818,0.0892,0.0972,0.1031,0.1119,0.1201,0.1308,0.1343,0.127,0.1156,0.0974,0.0857,0.0716,0.0711,0.0685,0.0595,0.058,0.0557,0.063,0.0656,0.0656,0.0656,0.0656,0.0657,0.0644,0.0678,0.0736,0.0812,0.0882,0.0974,0.1038,0.113,0.1237,0.1355,0.1392,0.1437,0.1295,0.106,0.0918,0.0682,0.0697,0.0597,0.0575,0.0583,0.0571,0.063,0.0628,0.0628,0.0628,0.0628,0.0629,0,0.0672,0.0715,0.0788,0.0877,0.0959,0.0991,0.1115,0.1182,0.1304,0.1392,0.1466,0.1414,0.1225,0.1017,0.0719,0.0574,0.0528,0.0502,0.0499,0.0499,0.0565,0.056,0.0522,0.0522,0.0522,0.0522,0.0522,0.0522,0.069,0.075,0.079,0.0923,0.099,0.109,0.1159,0.1258,0.1336,0.1423,0.1436,0.1461,0.1355,0.0886,0.0588,0.0499,0.0441,0.0406,0.0402,0.0433,0.044,0.0447,0.0438,0.0375,0.0375,0.0354,0.0353,0.0353]}],[{"header":{"parameterUnit":"m.s-1","parameterCategory":2,"la1":30.2991,"la2":30.254,"lo1":-89.0895,"lo2":-89.0444,"dy":0.0017,"dx":0.0017,"nx":28,"ny":28,"refTime":"2025-09-18T21:00:00:Z","depth":"2","parameterNumber":2,"parameterNumberName":"U-component_of_CURRENTS"},"data":[0,0,0,0,0,0,0,0,0,0,0,0,0,0,0,0,0,0,0,0,0,0,0,0,0,0,0,0,0,0,0,0,0,0,0,0,0,0,0,0,0,0,0,0,0,0,0,0,0,0,0,0,0,0,0,0,0,0,0.2208,0.2208,0,0.2175,0.2174,0.2174,0.2208,0.2209,0.2211,0.2212,0.2179,0.2177,0.2174,0,0,0,0,0,0,0,0,0,0,0,0,0,0.2228,0.2228,0.2208,0.2208,0.2208,0.2175,0.2174,0.2174,0.2208,0.221,0.2211,0.2213,0.218,0.2177,0.2174,0,0,0,0,0,0,0,0,0,0,0,0,0,0.2207,0.2227,0.2208,0.2223,0.2224,0.2175,0.2174,0.2173,0.2207,0.221,0.2212,0.2214,0.218,0.2177,0.2174,0.2105,0,0,0.2163,0.2161,0,0,0,0,0,0,0,0,0.2208,0.2206,0.2221,0.2222,0.2223,0.22,0.2169,0.2151,0.2207,0.2211,0.2213,0.2215,0.2186,0.2182,0.2167,0.2103,0.2102,0.2162,0.216,0.2159,0.2158,0,0,0,0,0,0,0,0.221,0.2207,0.2192,0.222,0.2222,0.2206,0.2206,0.2165,0.2184,0.2211,0.2214,0.2213,0.2186,0.217,0.2166,0.2101,0.2163,0.2159,0.2157,0.2156,0.224,0.2244,0,0,0,0,0,0,0.222,0.2209,0.2193,0.2192,0.2224,0.2204,0.2204,0.2203,0.2184,0.2184,0.2211,0.2215,0.2175,0.217,0.2165,0.2226,0.2159,0.2156,0.2154,0.2235,0.2241,0.2245,0,0,0,0,0,0,0.2221,0.2219,0.2195,0.2202,0.2198,0.2202,0.22,0.2201,0.2229,0.2185,0.2185,0.2244,0.2177,0.217,0.2203,0.222,0.2154,0.2151,0.223,0.2237,0.2243,0.2255,0,0,0,0,0,0,0.2221,0.2219,0.2226,0.2202,0.2198,0.2203,0.2198,0.2199,0.2223,0.2229,0.2211,0.2208,0.2178,0.2209,0.2199,0.2214,0.2148,0.2225,0.2233,0.2241,0.2249,0.2261,0.2271,0,0,0,0,0,0.2222,0.2224,0.2226,0.2225,0.2206,0.2204,0.2201,0.2209,0.2223,0.2241,0.2257,0.2211,0.2255,0.2208,0.2196,0.221,0.2221,0.2231,0.224,0.2244,0.2259,0.2271,0,0,0,0,0,0,0.2222,0.2226,0.2229,0.2229,0.2234,0.2212,0.2218,0.2229,0.2249,0.2255,0.2237,0.2235,0.2271,0.2263,0.2212,0.2276,0.2241,0.2249,0.2248,0.2262,0.2273,0.2259,0.2145,0,0,0,0,0,0.2226,0.2238,0.2236,0.2236,0.224,0.2236,0.2238,0.2241,0.225,0.2262,0.2269,0.2285,0.2292,0.2298,0.2299,0.231,0.2311,0.2332,0.2343,0.2352,0.2345,0.2404,0.2417,0.2278,0.2277,0.2277,0,0,0.2237,0.2227,0.2243,0.2239,0.2235,0.2245,0.2244,0.2249,0.2289,0.225,0.2318,0.2309,0.231,0.2336,0.2353,0.2332,0.2395,0.2364,0.237,0.2358,0.2415,0.2428,0.2439,0.2284,0.2283,0.2282,0,0,0.2238,0.2245,0.2256,0.2255,0.2252,0.2258,0.2276,0.2285,0.2331,0.238,0.2371,0.2386,0.2418,0.2406,0.2406,0.2485,0.2451,0.2508,0.2535,0.2593,0.2602,0.2611,0.2617,0.2626,0.2514,0.2514,0.2514,0,0.2287,0.2241,0.226,0.225,0.2245,0.2277,0.2278,0.2331,0.2364,0.2384,0.2426,0.246,0.245,0.2454,0.2493,0.2497,0.2522,0.2462,0.2599,0.2608,0.2617,0.2621,0.2631,0.2515,0.2515,0.2515,0.2515,0,0.2229,0.2243,0.2243,0.2254,0.2265,0.2262,0.2322,0.2375,0.2438,0.2463,0.2522,0.2535,0.2549,0.2561,0.2544,0.2592,0.2585,0.2596,0.2542,0.263,0.2631,0.264,0.2518,0.2517,0.2517,0.2516,0,0,0.2254,0.223,0.2233,0.2242,0.2252,0.2263,0.234,0.2389,0.2445,0.2517,0.2591,0.26,0.2598,0.2604,0.2592,0.2637,0.2703,0.2649,0.2651,0.2611,0.281,0.2628,0.2621,0.2747,0.2749,0.2751,0.2778,0,0.2228,0.2213,0.2193,0.222,0.2231,0.2266,0.2342,0.2393,0.2473,0.2574,0.2607,0.2666,0.2628,0.2643,0.2682,0.2697,0.2735,0.2693,0.2768,0.2769,0.2561,0.2628,0.244,0.2434,0.2788,0.2789,0.279,0,0.2163,0.2161,0.2164,0.2216,0.2223,0.2251,0.233,0.2396,0.2516,0.2585,0.263,0.2682,0.272,0.2738,0.278,0.2762,0.2791,0.2813,0.2815,0.2642,0.2605,0.2414,0.2438,0.2806,0.2805,0.2804,0.2803,0,0.213,0.2156,0.2158,0.2158,0.2216,0.2241,0.2288,0.2378,0.2452,0.259,0.2658,0.2714,0.2792,0.2825,0.2833,0.2837,0.2911,0.2921,0.2777,0.2763,0.2611,0.2578,0.2993,0.2993,0.2993,0.2993,0.2993,0,0.2076,0.209,0.2153,0.2142,0.2201,0.2226,0.2291,0.2374,0.248,0.2534,0.2652,0.271,0.2838,0.2885,0.2874,0.2816,0.2932,0.2774,0.2763,0.2609,0.2578,0.2912,0.2902,0.2994,0.2994,0.2993,0.2993,0,0.2028,0.2049,0.2091,0.2154,0.2188,0.2229,0.2312,0.2352,0.2456,0.2549,0.2599,0.2756,0.2777,0.2839,0.2912,0.2853,0.2823,0.2787,0.256,0.252,0.2632,0.2624,0.2632,0.2626,0.262,0.2616,0.2612,0,0.2004,0.2011,0.2118,0.2133,0.2156,0.2214,0.2254,0.236,0.239,0.2514,0.2556,0.2661,0.2656,0.2673,0.2626,0.2566,0.2695,0.2371,0.2327,0.2608,0.2599,0.2598,0.2597,0.2146,0.2139,0.2133,0.2128,0,0.1961,0.2009,0.2023,0.2095,0.2138,0.2182,0.2232,0.2271,0.2351,0.2395,0.2424,0.2429,0.2454,0.2312,0.2266,0.2209,0.235,0.2243,0.2645,0.2236,0.2144,0.2136,0.2153,0.2076,0.2081,0.2085,0.2088,0.209,0.1946,0.1966,0.2001,0.2032,0.2085,0.2105,0.2087,0.2104,0.2124,0.2108,0.2201,0.2104,0.2142,0.1929,0.1842,0.1813,0.1977,0.1921,0.1943,0.1971,0.188,0.178,0.1626,0.1628,0.163,0.1632,0.1634,0,0.1896,0.1894,0.1925,0.195,0.1927,0.2007,0.2024,0.194,0.186,0.1872,0.1819,0.1629,0.1495,0.1534,0.1388,0.1359,0.1406,0.1323,0.1393,0.1444,0.149,0.1379,0.099,0.0988,0.0986,0.0984,0,0,0.1857,0.1821,0.1813,0.1753,0.1771,0.1726,0.1699,0.1599,0.1561,0.1431,0.135,0.1396,0.1453,0.1194,0.1164,0.1051,0.1248,0.101,0.1528,0.1661,0.1704,0.1831,0.1714,0,0,0,0,0]},{"header":{"parameterUnit":"m.s-1","parameterCategory":2,"la1":30.2991,"la2":30.254,"lo1":-89.0895,"lo2":-89.0444,"dy":0.0017,"dx":0.0017,"nx":28,"ny":28,"refTime":"2025-09-18T21:00:00:Z","depth":"2","parameterNumber":3,"parameterNumberName":"V-component_of_CURRENTS"},"data":[0,0,0,0,0,0,0,0,0,0,0,0,0,0,0,0,0,0,0,0,0,0,0,0,0,0,0,0,0,0,0,0,0,0,0,0,0,0,0,0,0,0,0,0,0,0,0,0,0,0,0,0,0,0,0,0,0,0,0.0235,0.0234,0,0.02,0.02,0.0199,0.0192,0.0192,0.0193,0.0193,0.0141,0.014,0.0138,0,0,0,0,0,0,0,0,0,0,0,0,0,0.0226,0.0227,0.0235,0.0234,0.0234,0.02,0.02,0.0199,0.0192,0.0192,0.0193,0.0193,0.0142,0.014,0.0138,0,0,0,0,0,0,0,0,0,0,0,0,0,0.0215,0.0227,0.0235,0.0226,0.0225,0.02,0.02,0.0199,0.0192,0.0192,0.0193,0.0193,0.0142,0.014,0.0138,0.0114,0,0,0.013,0.0129,0,0,0,0,0,0,0,0,0.0216,0.0215,0.0228,0.0227,0.0226,0.0201,0.0178,0.017,0.0192,0.0204,0.0193,0.0193,0.0159,0.0156,0.0148,0.0112,0.011,0.013,0.0128,0.0127,0.0127,0,0,0,0,0,0,0,0.0216,0.0216,0.0221,0.0227,0.0226,0.0201,0.02,0.0176,0.018,0.0203,0.0203,0.0199,0.0159,0.0151,0.0147,0.0109,0.013,0.0128,0.0126,0.0125,0.0105,0.0106,0,0,0,0,0,0,0.0224,0.0217,0.0222,0.022,0.0222,0.0201,0.02,0.0208,0.018,0.0176,0.0199,0.0199,0.0155,0.015,0.0145,0.0153,0.0127,0.0125,0.0124,0.0104,0.0105,0.0106,0,0,0,0,0,0,0.0224,0.0226,0.0223,0.0217,0.0215,0.0201,0.021,0.0207,0.0205,0.0177,0.0173,0.0199,0.0155,0.0148,0.0131,0.015,0.0124,0.0122,0.0103,0.0105,0.0106,0.0146,0,0,0,0,0,0,0.0225,0.0226,0.0235,0.0218,0.0216,0.0218,0.0209,0.0206,0.0201,0.0201,0.0176,0.0171,0.0155,0.0134,0.0128,0.0146,0.012,0.0102,0.0104,0.0105,0.0143,0.0148,0.0152,0,0,0,0,0,0.0225,0.0236,0.0236,0.0237,0.0229,0.0218,0.0214,0.0205,0.0201,0.0203,0.0185,0.0172,0.0142,0.0132,0.0125,0.0143,0.0101,0.0103,0.0105,0.0141,0.0147,0.0152,0,0,0,0,0,0,0.0235,0.0236,0.0236,0.0247,0.0237,0.0217,0.0215,0.0208,0.0194,0.0193,0.0169,0.0163,0.0159,0.0144,0.0134,0.0145,0.0125,0.0126,0.0155,0.016,0.0165,0.018,0.0118,0,0,0,0,0,0.0243,0.0255,0.0245,0.0254,0.025,0.0233,0.0227,0.022,0.0204,0.02,0.0181,0.0168,0.016,0.0154,0.014,0.0135,0.0127,0.0147,0.0152,0.0156,0.0165,0.0175,0.0181,0.0113,0.0113,0.0113,0,0,0.0248,0.0251,0.0257,0.0257,0.0248,0.0247,0.0231,0.0224,0.0227,0.0194,0.019,0.0176,0.0161,0.0162,0.016,0.0152,0.017,0.0159,0.0162,0.0169,0.0178,0.0184,0.019,0.0115,0.0114,0.0114,0,0,0.026,0.0268,0.0278,0.0277,0.0269,0.0257,0.0258,0.024,0.0237,0.0225,0.0214,0.0212,0.0186,0.0191,0.0188,0.0209,0.0191,0.0209,0.0245,0.0254,0.026,0.0265,0.0254,0.0257,0.0215,0.0215,0.0215,0,0.0267,0.0284,0.0277,0.0287,0.029,0.0266,0.0274,0.0264,0.0244,0.0249,0.023,0.0226,0.0204,0.0228,0.0235,0.022,0.0215,0.0222,0.0261,0.0265,0.027,0.0257,0.0261,0.0217,0.0217,0.0217,0.0217,0,0.0285,0.0301,0.0306,0.0316,0.0315,0.0319,0.0306,0.0306,0.0293,0.0285,0.0297,0.0274,0.0281,0.0276,0.0255,0.0288,0.027,0.0261,0.0245,0.0279,0.0263,0.0266,0.0221,0.022,0.0219,0.0219,0,0,0.0298,0.0318,0.0321,0.0339,0.0336,0.0339,0.0345,0.035,0.037,0.0347,0.0383,0.0358,0.0356,0.0353,0.0342,0.0344,0.0355,0.0317,0.0316,0.0304,0.0364,0.0333,0.0332,0.0354,0.0355,0.0356,0.0337,0,0.0317,0.035,0.035,0.0379,0.0394,0.0389,0.0403,0.0405,0.0401,0.0427,0.0417,0.0433,0.0384,0.0398,0.0394,0.0374,0.0367,0.036,0.0335,0.0334,0.0301,0.0337,0.0338,0.032,0.0339,0.034,0.034,0,0.0332,0.0358,0.0392,0.043,0.0436,0.0448,0.0481,0.0491,0.0513,0.052,0.0535,0.0522,0.0534,0.0487,0.0463,0.0462,0.0415,0.0386,0.0385,0.0346,0.0309,0.0292,0.0324,0.0345,0.0344,0.0344,0.0344,0,0.035,0.0387,0.042,0.0433,0.0465,0.0486,0.05,0.052,0.0552,0.0585,0.0621,0.0615,0.0643,0.0583,0.0506,0.0491,0.0473,0.0447,0.0371,0.0367,0.0359,0.0353,0.0425,0.0425,0.0425,0.0425,0.0425,0,0.0373,0.0401,0.0435,0.0459,0.0509,0.0516,0.0571,0.0589,0.064,0.0696,0.0677,0.0727,0.0671,0.0645,0.0548,0.0472,0.0503,0.0385,0.0369,0.0371,0.0367,0.0382,0.0377,0.0424,0.0424,0.0424,0.0425,0,0.0385,0.0404,0.0452,0.0501,0.052,0.0554,0.0622,0.0669,0.0706,0.0787,0.0806,0.0835,0.0804,0.0716,0.0639,0.0546,0.0455,0.0411,0.0405,0.0389,0.0328,0.0326,0.0337,0.0336,0.0335,0.0334,0.0334,0,0.0397,0.0423,0.0488,0.0523,0.0547,0.0603,0.0651,0.0699,0.0759,0.0845,0.09,0.0907,0.0906,0.0781,0.0633,0.0473,0.0453,0.0364,0.0334,0.0341,0.0324,0.0323,0.0322,0.0333,0.0333,0.0332,0.0332,0,0.0426,0.0445,0.0486,0.0566,0.0619,0.0688,0.0762,0.0825,0.0891,0.0953,0.1031,0.1028,0.0931,0.0797,0.0593,0.0475,0.0388,0.0348,0.0383,0.0351,0.0335,0.0318,0.0318,0.0327,0.0328,0.0328,0.0328,0.0329,0.045,0.0479,0.0539,0.0611,0.0682,0.0775,0.0833,0.0912,0.1004,0.1084,0.1095,0.1077,0.0949,0.0684,0.0517,0.0352,0.0363,0.0284,0.0287,0.029,0.029,0.0273,0.0252,0.0252,0.0252,0.0252,0.0252,0,0.0481,0.0517,0.0586,0.0673,0.0756,0.0789,0.0911,0.0959,0.1053,0.1104,0.1131,0.0974,0.0826,0.0671,0.0426,0.0273,0.0261,0.0218,0.0246,0.0251,0.0255,0.0254,0.0206,0.0205,0.0205,0.0204,0,0,0.0498,0.0553,0.0585,0.0717,0.0787,0.0883,0.0949,0.1011,0.1065,0.1094,0.1074,0.1038,0.0865,0.0673,0.0487,0.0353,0.033,0.0314,0.0366,0.0426,0.0433,0.0307,0.0312,0,0,0,0,0]}],[{"header":{"parameterUnit":"m.s-1","parameterCategory":2,"la1":30.2991,"la2":30.254,"lo1":-89.0895,"lo2":-89.0444,"dy":0.0017,"dx":0.0017,"nx":28,"ny":28,"refTime":"2025-09-18T21:00:00:Z","depth":"4","parameterNumber":2,"parameterNumberName":"U-component_of_CURRENTS"},"data":[0,0,0,0,0,0,0,0,0,0,0,0,0,0,0,0,0,0,0,0,0,0,0,0,0,0,0,0,0,0,0,0,0,0,0,0,0,0,0,0,0,0,0,0,0,0,0,0,0,0,0,0,0,0,0,0,0,0,0.089,0.089,0,0.0869,0.0869,0.0868,0.0893,0.0894,0.0895,0.0896,0.0818,0.0815,0.0812,0,0,0,0,0,0,0,0,0,0,0,0,0,0.0834,0.0835,0.089,0.089,0.089,0.0869,0.0869,0.0868,0.0893,0.0894,0.0895,0.0897,0.0819,0.0815,0.0811,0,0,0,0,0,0,0,0,0,0,0,0,0,0.0839,0.0836,0.089,0.0901,0.0902,0.0869,0.0869,0.0868,0.0893,0.0894,0.0896,0.0897,0.082,0.0815,0.0811,0.075,0,0,0.0797,0.0795,0,0,0,0,0,0,0,0,0.0838,0.0841,0.0899,0.09,0.0901,0.0887,0.082,0.0826,0.0892,0.0894,0.0896,0.0898,0.0835,0.083,0.082,0.0746,0.0743,0.0796,0.0793,0.0791,0.079,0,0,0,0,0,0,0,0.0838,0.0841,0.088,0.0899,0.09,0.0867,0.087,0.0821,0.0853,0.0894,0.0896,0.0896,0.0835,0.0825,0.0819,0.0742,0.0796,0.0792,0.0789,0.0788,0.0799,0.0802,0,0,0,0,0,0,0.0849,0.0841,0.0881,0.088,0.0875,0.0867,0.0871,0.0888,0.0855,0.0853,0.0895,0.0897,0.0832,0.0824,0.0816,0.0863,0.0792,0.0787,0.0785,0.0796,0.08,0.0803,0,0,0,0,0,0,0.0848,0.0853,0.0882,0.086,0.0862,0.0867,0.0886,0.0887,0.0906,0.0857,0.0853,0.0917,0.0833,0.0822,0.0824,0.0856,0.0785,0.0781,0.0793,0.0797,0.0802,0.088,0,0,0,0,0,0,0.0847,0.0854,0.0877,0.0862,0.0863,0.0867,0.0885,0.0886,0.0902,0.0906,0.0873,0.0866,0.0833,0.0832,0.082,0.0848,0.0777,0.0789,0.0795,0.08,0.0873,0.0887,0.0898,0,0,0,0,0,0.0845,0.0865,0.0879,0.0884,0.0894,0.0867,0.0864,0.0871,0.0902,0.0898,0.0913,0.0869,0.0861,0.083,0.0815,0.0843,0.0786,0.0793,0.08,0.0868,0.0884,0.0898,0,0,0,0,0,0,0.0854,0.0869,0.0884,0.0911,0.0894,0.0872,0.0879,0.0886,0.0893,0.092,0.0883,0.0876,0.0896,0.0866,0.0832,0.0874,0.0825,0.0829,0.0882,0.0897,0.0909,0.0881,0.0773,0,0,0,0,0,0.0867,0.0896,0.0883,0.0909,0.0904,0.0899,0.0897,0.0904,0.0903,0.0911,0.0886,0.0892,0.0906,0.09,0.0888,0.0885,0.0871,0.0908,0.092,0.093,0.0904,0.0938,0.0949,0.0826,0.0826,0.0826,0,0,0.0869,0.0893,0.0903,0.0913,0.091,0.0894,0.0902,0.0911,0.091,0.0897,0.0898,0.092,0.0919,0.0938,0.0945,0.0917,0.0968,0.0939,0.0947,0.0915,0.0946,0.0957,0.0967,0.0831,0.083,0.0829,0,0,0.0876,0.0918,0.0927,0.0923,0.0932,0.0919,0.0927,0.0914,0.0925,0.0907,0.0953,0.0992,0.0948,0.0988,0.0997,0.1064,0.1033,0.1088,0.1112,0.1147,0.1156,0.1164,0.1191,0.1201,0.1091,0.1091,0.1092,0,0.0869,0.0903,0.0919,0.0925,0.0928,0.0933,0.0925,0.0922,0.0916,0.0933,0.0909,0.0971,0.096,0.1052,0.1087,0.1084,0.1106,0.1051,0.1159,0.1166,0.1173,0.1199,0.1208,0.1096,0.1095,0.1095,0.1095,0,0.0879,0.0901,0.0907,0.0921,0.092,0.0922,0.0916,0.0926,0.0927,0.0923,0.0987,0.1005,0.1048,0.1077,0.1081,0.1177,0.1181,0.1171,0.111,0.1189,0.1213,0.1221,0.1103,0.1101,0.11,0.1098,0,0,0.087,0.0898,0.0908,0.0916,0.0929,0.0926,0.0937,0.094,0.095,0.0966,0.0984,0.1059,0.1105,0.1125,0.1195,0.1222,0.1292,0.122,0.122,0.1227,0.1383,0.124,0.1235,0.1317,0.1318,0.1319,0.1391,0,0.0864,0.0873,0.0899,0.0904,0.0895,0.0924,0.0921,0.0944,0.0929,0.0935,0.1023,0.1045,0.1121,0.1155,0.1221,0.1276,0.1313,0.1273,0.1321,0.1321,0.1168,0.1238,0.1323,0.1397,0.1399,0.14,0.1401,0,0.086,0.0877,0.0876,0.0898,0.0901,0.0913,0.0936,0.0938,0.0964,0.0963,0.1048,0.1061,0.1192,0.1176,0.1349,0.1335,0.1359,0.1376,0.138,0.1208,0.1191,0.1297,0.1414,0.1413,0.1412,0.1411,0.1411,0,0.0839,0.0861,0.0869,0.0878,0.0894,0.0929,0.095,0.0963,0.0985,0.0995,0.0996,0.1122,0.1202,0.1271,0.134,0.1348,0.145,0.146,0.1361,0.1353,0.1422,0.1412,0.1512,0.1512,0.1511,0.1511,0.1511,0,0.0811,0.0826,0.0873,0.088,0.0895,0.0937,0.0957,0.0967,0.1021,0.1036,0.1057,0.1099,0.1223,0.1286,0.1334,0.1387,0.1472,0.1357,0.1356,0.1461,0.1455,0.1429,0.1419,0.1514,0.1513,0.1513,0.1512,0,0.0766,0.0794,0.0798,0.0851,0.0875,0.0895,0.0981,0.0983,0.1047,0.107,0.108,0.1147,0.1215,0.1288,0.1371,0.1382,0.1402,0.1379,0.1481,0.1486,0.1287,0.1281,0.1291,0.1287,0.1283,0.1279,0.1277,0,0.0728,0.0732,0.0773,0.0782,0.0814,0.0872,0.089,0.0979,0.0999,0.109,0.1099,0.1156,0.1179,0.1242,0.1299,0.1344,0.1329,0.1325,0.1304,0.1264,0.1263,0.1263,0.1261,0.127,0.1269,0.1268,0.1267,0,0.0668,0.0694,0.0701,0.0713,0.0744,0.0768,0.0835,0.0867,0.0959,0.1031,0.1082,0.1078,0.1138,0.1188,0.1204,0.1238,0.1318,0.1285,0.1294,0.1274,0.1239,0.1242,0.1245,0.1254,0.1256,0.1257,0.1258,0,0.0631,0.0609,0.0631,0.0636,0.067,0.0684,0.0712,0.0784,0.0845,0.0976,0.0993,0.1057,0.1145,0.1132,0.1156,0.1154,0.1152,0.1122,0.1139,0.1155,0.1065,0.0998,0.0932,0,0,0,0,0,0.0588,0.0574,0.0562,0.0564,0.0599,0.0635,0.0685,0.0726,0.0833,0.0847,0.0941,0.0967,0.0994,0.1033,0.1007,0.1057,0.1129,0.1015,0.1097,0.1179,0.1195,0.1096,0,0,0,0,0,0,0.0574,0.0563,0.0538,0.053,0.0545,0.0573,0.0611,0.0658,0.0694,0.0807,0.0842,0.0915,0.0965,0.1032,0.1004,0.1008,0.1034,0.107,0.1067,0.1171,0.1185,0.1197,0.1101,0,0,0,0,0]},{"header":{"parameterUnit":"m.s-1","parameterCategory":2,"la1":30.2991,"la2":30.254,"lo1":-89.0895,"lo2":-89.0444,"dy":0.0017,"dx":0.0017,"nx":28,"ny":28,"refTime":"2025-09-18T21:00:00:Z","depth":"4","parameterNumber":3,"parameterNumberName":"V-component_of_CURRENTS"},"data":[0,0,0,0,0,0,0,0,0,0,0,0,0,0,0,0,0,0,0,0,0,0,0,0,0,0,0,0,0,0,0,0,0,0,0,0,0,0,0,0,0,0,0,0,0,0,0,0,0,0,0,0,0,0,0,0,0,0,0.0172,0.0172,0,0.017,0.017,0.017,0.017,0.0171,0.0171,0.0171,0.0193,0.0193,0.0194,0,0,0,0,0,0,0,0,0,0,0,0,0,0.0159,0.0159,0.0172,0.0172,0.0173,0.017,0.017,0.017,0.017,0.0171,0.0171,0.0171,0.0193,0.0193,0.0194,0,0,0,0,0,0,0,0,0,0,0,0,0,0.016,0.0159,0.0172,0.0174,0.0174,0.017,0.017,0.0169,0.017,0.0171,0.0171,0.0171,0.0193,0.0193,0.0194,0.0192,0,0,0.0196,0.0196,0,0,0,0,0,0,0,0,0.016,0.016,0.0173,0.0174,0.0174,0.0172,0.0173,0.0179,0.017,0.017,0.0171,0.0171,0.0189,0.019,0.0186,0.0193,0.0194,0.0196,0.0196,0.0196,0.0197,0,0,0,0,0,0,0,0.016,0.016,0.017,0.0174,0.0174,0.0168,0.0169,0.0174,0.0177,0.017,0.0171,0.0173,0.0189,0.0186,0.0187,0.0194,0.0196,0.0196,0.0197,0.0197,0.0184,0.0183,0,0,0,0,0,0,0.0164,0.016,0.017,0.017,0.0169,0.0168,0.0169,0.0171,0.0177,0.0178,0.0172,0.0173,0.0184,0.0186,0.0188,0.0197,0.0196,0.0197,0.0197,0.0184,0.0184,0.0183,0,0,0,0,0,0,0.0163,0.0165,0.017,0.0166,0.0167,0.0169,0.0171,0.0171,0.0175,0.0178,0.018,0.0177,0.0185,0.0187,0.018,0.0198,0.0197,0.0198,0.0185,0.0184,0.0183,0.0209,0,0,0,0,0,0,0.0163,0.0165,0.017,0.0166,0.0167,0.0175,0.0171,0.0171,0.0176,0.0177,0.0183,0.0185,0.0185,0.0179,0.0181,0.0199,0.0198,0.0186,0.0185,0.0183,0.0209,0.0209,0.0209,0,0,0,0,0,0.0163,0.0168,0.017,0.0172,0.0174,0.0175,0.0175,0.0176,0.0176,0.018,0.0169,0.0185,0.0172,0.0179,0.0181,0.02,0.0187,0.0185,0.0184,0.0209,0.0209,0.0209,0,0,0,0,0,0,0.0164,0.0168,0.0171,0.0178,0.0181,0.0176,0.0179,0.018,0.0174,0.0173,0.0174,0.0175,0.0175,0.0175,0.0182,0.0187,0.0183,0.0182,0.0202,0.0202,0.0201,0.0202,0.0199,0,0,0,0,0,0.0168,0.0175,0.0176,0.0183,0.0183,0.0182,0.0184,0.0184,0.0178,0.0177,0.018,0.0175,0.0168,0.0175,0.0167,0.0175,0.0161,0.0185,0.0185,0.0185,0.0184,0.0162,0.016,0.0177,0.0177,0.0177,0,0,0.017,0.0175,0.0179,0.0185,0.0184,0.0187,0.0184,0.0186,0.0189,0.018,0.0184,0.0175,0.0165,0.0166,0.0168,0.0173,0.0173,0.0183,0.0184,0.0183,0.016,0.0158,0.0157,0.0176,0.0177,0.0177,0,0,0.0177,0.0182,0.0188,0.0194,0.0198,0.0194,0.0197,0.0196,0.0196,0.0193,0.0182,0.0176,0.0178,0.0172,0.0169,0.0162,0.0167,0.0168,0.0182,0.016,0.0159,0.0158,0.0144,0.0141,0.0177,0.0177,0.0177,0,0.0184,0.0192,0.0191,0.0199,0.0207,0.0199,0.0207,0.0202,0.02,0.0201,0.0197,0.0182,0.0179,0.0175,0.017,0.0166,0.0153,0.0189,0.0162,0.016,0.0159,0.0144,0.0141,0.0178,0.0178,0.0178,0.0178,0,0.0192,0.0204,0.0208,0.0217,0.0221,0.0228,0.0223,0.0226,0.0224,0.022,0.0214,0.0196,0.0193,0.0191,0.0181,0.0173,0.0167,0.016,0.0168,0.0159,0.0144,0.014,0.0179,0.0179,0.0179,0.0178,0,0,0.02,0.0213,0.0217,0.0229,0.0234,0.024,0.0242,0.0244,0.025,0.024,0.0243,0.0225,0.0218,0.0212,0.0202,0.0184,0.0163,0.0172,0.017,0.0168,0.0119,0.0113,0.0108,0.0153,0.0153,0.0152,0.0116,0,0.0212,0.0236,0.0235,0.0256,0.0267,0.0268,0.0276,0.0276,0.0268,0.0266,0.0245,0.0238,0.0226,0.0226,0.0206,0.0169,0.0153,0.0174,0.0119,0.0117,0.0121,0.0103,0.015,0.0113,0.0112,0.0111,0.0111,0,0.022,0.0239,0.0264,0.0289,0.0293,0.0304,0.032,0.0323,0.0312,0.0311,0.0297,0.0271,0.0247,0.0232,0.0176,0.0191,0.0158,0.0127,0.0125,0.0107,0.0103,0.0121,0.0104,0.0104,0.0105,0.0105,0.0106,0,0.0234,0.0258,0.0282,0.0293,0.0315,0.0331,0.034,0.0341,0.0357,0.0335,0.034,0.0298,0.0292,0.0231,0.0171,0.0173,0.01,0.0096,0.0059,0.0059,0.0067,0.0069,0.0052,0.0052,0.0052,0.0052,0.0052,0,0.0249,0.0269,0.0295,0.0314,0.0348,0.0354,0.0386,0.0388,0.04,0.0414,0.0367,0.0363,0.029,0.0238,0.0173,0.0105,0.0105,0.0055,0.0045,0.0078,0.0082,0.0065,0.0067,0.005,0.0051,0.0051,0.0051,0,0.0255,0.0273,0.0308,0.0345,0.0357,0.0383,0.0431,0.0454,0.0458,0.0471,0.0467,0.0423,0.0353,0.027,0.0175,0.0126,0.0045,0.0022,0.0066,0.006,0.0019,0.0023,-0.0023,-0.0024,-0.0024,-0.0025,-0.0025,0,0.0259,0.0278,0.0333,0.0363,0.0383,0.0426,0.046,0.0486,0.051,0.0502,0.0507,0.0449,0.0404,0.0272,0.0178,0.0052,0.0037,-0.0002,0.0002,0.0015,0.001,0.0014,0.0018,-0.0026,-0.0026,-0.0026,-0.0026,0,0.0265,0.0289,0.0323,0.0383,0.0428,0.0477,0.0521,0.0548,0.0566,0.0574,0.0543,0.0463,0.0388,0.0277,0.0184,0.0089,0.0018,-0.0008,-0.0007,-0.0004,0.0011,0.0007,0.0012,-0.0028,-0.0028,-0.0028,-0.0028,0,0.0273,0.0292,0.0339,0.0397,0.0455,0.0502,0.053,0.0559,0.0585,0.058,0.0567,0.0472,0.0431,0.0296,0.0199,0.0112,0.0092,0.0063,0.0059,0.006,0.009,0.0121,0.0104,0,0,0,0,0,0.0275,0.0295,0.0345,0.0404,0.0469,0.05,0.0557,0.0581,0.0602,0.059,0.0584,0.0505,0.0367,0.0305,0.0219,0.0179,0.0068,0.0074,0.0031,-0.0038,-0.0036,-0.0017,0,0,0,0,0,0,0.0272,0.031,0.0335,0.0405,0.0449,0.0507,0.0547,0.0562,0.0561,0.0569,0.0502,0.0478,0.0349,0.0417,0.0214,0.0187,0.0146,0.0015,0.0013,-0.0039,-0.0038,-0.0036,-0.0016,0,0,0,0,0]}]]